カタログに戻る

GLOBALSTAR M014

運用中通信LEO
NORAD 25306·PAYLOAD·🇺🇸 United States

打ち上げ Apr 24, 1998 から Cape Canaveral Space Force Station

Loading…

次のパス (今後24時間)

TLE

最新Source: Space-Track

元期: Sep 14, 2026, 13:46 UTC

1 25306U 98023A   26257.57386928 -.00000076  00000-0  31739-4 0  9999
2 25306  51.9821  94.5602 0001677 101.3719 271.4610 11.65488212244158

AllMySatでGLOBALSTAR M014をリアルタイム追跡

Download on the App Store